Voltar ao catálogo

KUIPER-00160

AtivoComunicaçõesLEO
NORAD 67765·PAYLOAD·🇺🇸 United States

Lançado Feb 12, 2026 de Guiana Space Centre

Loading…

Próximas Passagens (próximas 24 horas)

TLE

AtualizadoSource: CelesTrak SupGP

Época: Sep 14, 2026, 16:36 UTC

1 67765C 26030B   26257.69206019 -.00666600  00000+0 -76617-1 0  2577
2 67765  51.8989  29.9879 0011537 349.3551 328.2957 14.85947529    15

Acompanhe KUIPER-00160 em tempo real com AllMySat

Download on the App Store